[[{"header":{"parameterUnit":"m.s-1","parameterCategory":1,"la1":30.2991,"la2":30.254,"lo1":-89.0895,"lo2":-89.0444,"dy":0.0017,"dx":0.0017,"nx":28,"ny":28,"refTime":"2024-03-11T03:00:00:Z","depth":0,"parameterNumber":2,"parameterNumberName":"U-component_of_WINDS"},"data":[0,0,0,0,0,0,0,0,0,0,0,0,0,0,0,0,0,0,0,0,0,0,0,0,0,0,0,0,0,0,0,0,0,0,0,0,0,0,0,0,0,0,0,0,0,0,0,0,0,0,0,0,0,0,0,0,0,0,-2.1318,-2.1317,0,-2.1277,-2.1276,-2.1276,-2.1201,-2.1199,-2.1198,-2.1196,-2.1154,-2.1155,-2.1155,0,0,0,0,0,0,0,0,0,0,0,0,0,-2.1334,-2.1335,-2.1318,-2.1317,-2.1317,-2.1277,-2.1276,-2.1275,-2.1201,-2.1199,-2.1197,-2.1196,-2.1154,-2.1155,-2.1155,0,0,0,0,0,0,0,0,0,0,0,0,0,-2.1314,-2.1335,-2.1318,-2.1275,-2.1271,-2.1277,-2.1276,-2.1275,-2.1201,-2.1199,-2.1197,-2.1195,-2.1154,-2.1155,-2.1155,-2.12,0,0,-2.1156,-2.1156,0,0,0,0,0,0,0,0,-2.1315,-2.1313,-2.1282,-2.1278,-2.1273,-2.1241,-2.1266,-2.125,-2.1202,-2.1228,-2.1196,-2.1194,-2.1185,-2.1183,-2.118,-2.1198,-2.1196,-2.1156,-2.1156,-2.1156,-2.1156,0,0,0,0,0,0,0,-2.1316,-2.1315,-2.1301,-2.1281,-2.1276,-2.1258,-2.1253,-2.1263,-2.1219,-2.1225,-2.122,-2.1216,-2.1182,-2.118,-2.1178,-2.1196,-2.1156,-2.1156,-2.1156,-2.1157,-2.1251,-2.1253,0,0,0,0,0,0,-2.1324,-2.1316,-2.1303,-2.13,-2.1289,-2.126,-2.1254,-2.1254,-2.1219,-2.1211,-2.1218,-2.1212,-2.118,-2.1178,-2.1177,-2.1227,-2.1156,-2.1157,-2.1157,-2.1248,-2.1251,-2.1254,0,0,0,0,0,0,-2.1325,-2.1324,-2.1304,-2.1307,-2.1303,-2.1262,-2.1262,-2.1254,-2.1251,-2.1213,-2.1205,-2.1223,-2.1178,-2.1176,-2.1195,-2.1225,-2.1157,-2.1157,-2.1246,-2.1249,-2.1252,-2.1329,0,0,0,0,0,0,-2.1326,-2.1324,-2.134,-2.1308,-2.1303,-2.1323,-2.1264,-2.1255,-2.1252,-2.1245,-2.1216,-2.1209,-2.1176,-2.1195,-2.1195,-2.1224,-2.1157,-2.1243,-2.1247,-2.1251,-2.1323,-2.1334,-2.1344,0,0,0,0,0,-2.1326,-2.1363,-2.1341,-2.134,-2.1322,-2.1325,-2.1322,-2.1284,-2.1255,-2.1271,-2.1247,-2.121,-2.1222,-2.1198,-2.1197,-2.1226,-2.1241,-2.1246,-2.1251,-2.1319,-2.1332,-2.1344,0,0,0,0,0,0,-2.14,-2.1358,-2.1333,-2.1361,-2.1347,-2.1312,-2.1331,-2.13,-2.1294,-2.1288,-2.1241,-2.1236,-2.1261,-2.1246,-2.1219,-2.1269,-2.1226,-2.1231,-2.1277,-2.129,-2.13,-2.1302,-2.1158,0,0,0,0,0,-2.1419,-2.1425,-2.1388,-2.1416,-2.141,-2.1373,-2.1372,-2.1345,-2.1328,-2.1322,-2.1299,-2.1286,-2.1286,-2.1288,-2.1286,-2.1322,-2.1315,-2.1342,-2.1353,-2.1361,-2.1366,-2.1384,-2.1396,-2.1271,-2.127,-2.127,0,0,-2.1459,-2.1437,-2.1443,-2.143,-2.1416,-2.1423,-2.1368,-2.1377,-2.1382,-2.1324,-2.134,-2.1323,-2.1305,-2.1333,-2.1344,-2.1321,-2.1399,-2.1368,-2.1375,-2.1375,-2.1391,-2.1403,-2.1413,-2.1274,-2.1273,-2.1273,0,0,-2.1535,-2.1519,-2.154,-2.1528,-2.1508,-2.1483,-2.1489,-2.146,-2.1446,-2.1462,-2.1419,-2.1425,-2.1427,-2.1416,-2.1411,-2.1487,-2.1453,-2.1488,-2.154,-2.1559,-2.1569,-2.1578,-2.1604,-2.1614,-2.1493,-2.1493,-2.1493,0,-2.1586,-2.1595,-2.1555,-2.1568,-2.1564,-2.1513,-2.1535,-2.1525,-2.1506,-2.1505,-2.148,-2.1483,-2.1467,-2.1492,-2.1511,-2.1508,-2.1513,-2.1489,-2.1571,-2.1579,-2.1586,-2.1611,-2.1621,-2.1498,-2.1497,-2.1497,-2.1496,0,-2.166,-2.1667,-2.1687,-2.167,-2.1668,-2.1686,-2.165,-2.1654,-2.1627,-2.1606,-2.1624,-2.1603,-2.1597,-2.1602,-2.1576,-2.1624,-2.161,-2.1579,-2.1534,-2.1603,-2.1626,-2.1635,-2.1504,-2.1502,-2.1501,-2.15,0,0,-2.1777,-2.174,-2.1748,-2.1741,-2.1717,-2.1721,-2.1738,-2.1732,-2.1736,-2.1726,-2.1739,-2.1743,-2.1715,-2.1709,-2.1682,-2.1699,-2.1761,-2.1666,-2.1665,-2.1683,-2.1812,-2.1835,-2.1846,-2.1739,-2.1741,-2.1742,-2.1814,0,-2.1846,-2.1871,-2.1837,-2.1869,-2.1876,-2.1829,-2.1843,-2.1831,-2.1812,-2.1815,-2.1794,-2.1798,-2.1761,-2.1757,-2.1772,-2.175,-2.1786,-2.1745,-2.175,-2.1751,-2.1754,-2.1858,-2.1881,-2.1949,-2.1822,-2.1824,-2.1825,0,-2.1929,-2.1924,-2.1957,-2.1932,-2.1934,-2.1947,-2.194,-2.1944,-2.193,-2.1915,-2.1911,-2.1879,-2.1894,-2.1853,-2.1874,-2.1847,-2.1848,-2.1838,-2.184,-2.1837,-2.179,-2.1857,-2.197,-2.198,-2.1838,-2.1837,-2.1836,0,-2.2011,-2.2012,-2.2032,-2.2027,-2.1999,-2.201,-2.1999,-2.1982,-2.1982,-2.1977,-2.1976,-2.1974,-2.1971,-2.197,-2.1939,-2.1912,-2.1964,-2.192,-2.1952,-2.1953,-2.1963,-2.1962,-2.2077,-2.1967,-2.1967,-2.1967,-2.1966,0,-2.2091,-2.2112,-2.2068,-2.208,-2.2104,-2.2066,-2.2091,-2.2076,-2.2062,-2.2071,-2.2032,-2.2041,-2.2,-2.2006,-2.1982,-2.2003,-2.2003,-2.1992,-2.1985,-2.1994,-2.1995,-2.1992,-2.1986,-2.1969,-2.1969,-2.1968,-2.1968,0,-2.2184,-2.2155,-2.2174,-2.2147,-2.2141,-2.216,-2.2137,-2.2148,-2.2128,-2.214,-2.214,-2.2109,-2.2113,-2.2083,-2.2083,-2.2067,-2.2099,-2.2085,-2.2103,-2.2098,-2.2132,-2.2129,-2.2247,-2.226,-2.2144,-2.2145,-2.2146,0,-2.2236,-2.2251,-2.2227,-2.223,-2.2221,-2.2227,-2.2227,-2.2192,-2.2194,-2.218,-2.2193,-2.2195,-2.2194,-2.2204,-2.2181,-2.2181,-2.2165,-2.2207,-2.2165,-2.2174,-2.2165,-2.2164,-2.2165,-2.2215,-2.2216,-2.2218,-2.2219,0,-2.2331,-2.2316,-2.2317,-2.2314,-2.2315,-2.2311,-2.2304,-2.2309,-2.2272,-2.2276,-2.228,-2.228,-2.228,-2.2282,-2.2278,-2.2268,-2.2237,-2.2233,-2.224,-2.2248,-2.2258,-2.2253,-2.2126,-2.2229,-2.2228,-2.2227,-2.2227,-2.2226,-2.2404,-2.2416,-2.2401,-2.2404,-2.2396,-2.2391,-2.24,-2.2382,-2.2385,-2.2382,-2.2362,-2.2371,-2.2358,-2.2349,-2.2342,-2.2349,-2.2329,-2.234,-2.2342,-2.2345,-2.2351,-2.2259,-2.2349,-2.2348,-2.2348,-2.2348,-2.2347,0,-2.2495,-2.2484,-2.2488,-2.248,-2.2483,-2.2455,-2.2447,-2.2452,-2.246,-2.2451,-2.2451,-2.2458,-2.2461,-2.244,-2.244,-2.2449,-2.2436,-2.2451,-2.2448,-2.2447,-2.2369,-2.2362,-2.2462,-2.2462,-2.2462,-2.2462,-2.2462,-2.2462,-2.2543,-2.2563,-2.2547,-2.2563,-2.2552,-2.256,-2.2558,-2.2554,-2.2546,-2.2555,-2.2557,-2.2544,-2.2531,-2.253,-2.2532,-2.2526,-2.2527,-2.2547,-2.2536,-2.2463,-2.2452,-2.2441,-2.2435,-2.2548,-2.2548,-2.2613,-2.2614,-2.2614]},{"header":{"parameterUnit":"m.s-1","parameterCategory":1,"la1":30.2991,"la2":30.254,"lo1":-89.0895,"lo2":-89.0444,"dy":0.0017,"dx":0.0017,"nx":28,"ny":28,"refTime":"2024-03-11T03:00:00:Z","depth":0,"parameterNumber":3,"parameterNumberName":"V-component_of_WINDS"},"data":[0,0,0,0,0,0,0,0,0,0,0,0,0,0,0,0,0,0,0,0,0,0,0,0,0,0,0,0,0,0,0,0,0,0,0,0,0,0,0,0,0,0,0,0,0,0,0,0,0,0,0,0,0,0,0,0,0,0,3.1504,3.1504,0,3.1521,3.1521,3.1521,3.1572,3.1573,3.1575,3.1576,3.1588,3.1588,3.1587,0,0,0,0,0,0,0,0,0,0,0,0,0,3.1511,3.1511,3.1503,3.1504,3.1504,3.1521,3.1521,3.1521,3.1572,3.1574,3.1575,3.1576,3.1589,3.1588,3.1587,0,0,0,0,0,0,0,0,0,0,0,0,0,3.1516,3.1511,3.1503,3.1532,3.1534,3.1521,3.1521,3.1521,3.1572,3.1574,3.1575,3.1577,3.1589,3.1588,3.1587,3.1546,0,0,3.1583,3.1583,0,0,0,0,0,0,0,0,3.1515,3.1515,3.1527,3.153,3.1533,3.1546,3.1528,3.1529,3.1571,3.1557,3.1576,3.1578,3.1573,3.1573,3.1572,3.1546,3.1547,3.1583,3.1583,3.1582,3.1582,0,0,0,0,0,0,0,3.1515,3.1515,3.151,3.1527,3.1531,3.1542,3.1545,3.1529,3.1555,3.1559,3.1563,3.1564,3.1574,3.1573,3.1573,3.1547,3.1583,3.1582,3.1582,3.1581,3.149,3.1488,0,0,0,0,0,0,3.1511,3.1514,3.151,3.1511,3.1528,3.1541,3.1543,3.154,3.1555,3.1559,3.1563,3.1566,3.1574,3.1574,3.1574,3.1528,3.1582,3.1581,3.1581,3.1492,3.1489,3.1487,0,0,0,0,0,0,3.1511,3.151,3.1509,3.1514,3.1514,3.1539,3.1534,3.1539,3.1538,3.1558,3.1563,3.1557,3.1576,3.1575,3.1553,3.1529,3.1581,3.158,3.1494,3.1491,3.1488,3.1434,0,0,0,0,0,0,3.1511,3.151,3.1496,3.1513,3.1514,3.1489,3.1533,3.1539,3.1537,3.1542,3.1554,3.1558,3.1577,3.1554,3.1552,3.1528,3.1579,3.1496,3.1492,3.1489,3.1438,3.143,3.1423,0,0,0,0,0,3.1511,3.1478,3.1495,3.1494,3.1497,3.1487,3.1488,3.1512,3.1535,3.152,3.1533,3.1557,3.1532,3.1552,3.1549,3.1525,3.1497,3.1493,3.1489,3.1442,3.1432,3.1423,0,0,0,0,0,0,3.1455,3.1481,3.1499,3.1471,3.1477,3.1496,3.1478,3.15,3.1498,3.1503,3.1532,3.1534,3.1508,3.1514,3.1536,3.1487,3.1519,3.1514,3.1483,3.1474,3.1466,3.1465,3.1578,0,0,0,0,0,3.144,3.1432,3.1454,3.1427,3.143,3.1453,3.145,3.1469,3.1475,3.1477,3.1488,3.1492,3.1486,3.148,3.1475,3.144,3.1443,3.1422,3.1414,3.1408,3.1403,3.1386,3.1377,3.1474,3.1474,3.1474,0,0,3.1408,3.1421,3.1413,3.1416,3.1423,3.1413,3.1455,3.1442,3.1435,3.1475,3.1455,3.1463,3.147,3.1441,3.1429,3.1446,3.1377,3.1403,3.1398,3.1396,3.1381,3.1371,3.1363,3.1472,3.1472,3.1472,0,0,3.1344,3.1353,3.1332,3.1338,3.1349,3.1365,3.136,3.1376,3.1384,3.1365,3.1395,3.1386,3.1373,3.1377,3.1377,3.1316,3.1339,3.1314,3.1273,3.1256,3.1248,3.1242,3.122,3.1212,3.1309,3.1309,3.1309,0,3.1302,3.1289,3.1318,3.1304,3.1304,3.1342,3.1321,3.1325,3.1332,3.1331,3.135,3.1336,3.1343,3.1316,3.1301,3.13,3.1295,3.1312,3.1247,3.1241,3.1235,3.1215,3.1207,3.1306,3.1306,3.1307,3.1307,0,3.1237,3.1228,3.1209,3.1218,3.1216,3.1198,3.1223,3.1218,3.1237,3.1251,3.1231,3.1241,3.1239,3.1234,3.1251,3.121,3.122,3.1243,3.1275,3.1222,3.1204,3.1196,3.1301,3.1303,3.1304,3.1304,0,0,3.1137,3.1163,3.1156,3.116,3.1175,3.1168,3.1152,3.1152,3.1147,3.115,3.1137,3.1126,3.1148,3.1148,3.1166,3.1151,3.1103,3.1176,3.1177,3.1162,3.1058,3.1041,3.1031,3.1118,3.1117,3.1116,3.1058,0,3.1077,3.1052,3.1078,3.1048,3.104,3.1076,3.1062,3.1069,3.1082,3.1076,3.109,3.1082,3.1111,3.1112,3.1098,3.1112,3.1082,3.1116,3.1105,3.1104,3.1102,3.1022,3.1003,3.0947,3.105,3.1049,3.1048,0,3.1003,3.1006,3.0975,3.0993,3.0991,3.0978,3.098,3.0974,3.0983,3.0993,3.0994,3.1017,3.1002,3.1035,3.1013,3.1036,3.1033,3.1039,3.1037,3.1037,3.1073,3.1018,3.093,3.0922,3.1037,3.1038,3.1039,0,3.0933,3.0929,3.0911,3.0913,3.0934,3.0924,3.0932,3.0942,3.0941,3.0942,3.0942,3.0941,3.094,3.0938,3.096,3.0982,3.0936,3.0971,3.0944,3.0943,3.0932,3.0932,3.0842,3.093,3.093,3.093,3.0931,0,3.0863,3.0843,3.088,3.0868,3.0847,3.0876,3.0854,3.0865,3.0874,3.0865,3.0896,3.0886,3.0916,3.0909,3.0926,3.0906,3.0905,3.0913,3.0917,3.091,3.0909,3.0908,3.0912,3.0928,3.0929,3.0929,3.093,0,3.0781,3.0805,3.0788,3.0809,3.0814,3.0797,3.0815,3.0805,3.0821,3.0808,3.0807,3.0831,3.0825,3.0847,3.0843,3.0855,3.0826,3.0836,3.0823,3.0826,3.0798,3.0801,3.0704,3.0692,3.0788,3.0787,3.0786,0,3.0735,3.0721,3.0741,3.0738,3.0745,3.0739,3.0739,3.0767,3.0765,3.0775,3.0763,3.076,3.0759,3.0747,3.0763,3.0761,3.0772,3.0738,3.0771,3.0765,3.0771,3.0772,3.077,3.0731,3.0729,3.0728,3.0728,0,3.065,3.0663,3.0662,3.0665,3.0664,3.0667,3.0672,3.0667,3.0698,3.0694,3.0689,3.0688,3.0686,3.0682,3.0684,3.069,3.0714,3.0717,3.0711,3.0703,3.0696,3.0699,3.0804,3.0719,3.072,3.0721,3.0721,3.0721,3.0585,3.0574,3.0588,3.0585,3.0592,3.0597,3.0589,3.0604,3.0601,3.0603,3.062,3.0611,3.0621,3.0626,3.063,3.0624,3.0639,3.063,3.0627,3.0625,3.062,3.0697,3.0624,3.0624,3.0624,3.0625,3.0625,0,3.0502,3.0513,3.051,3.0518,3.0516,3.054,3.0547,3.0543,3.0536,3.0544,3.0543,3.0537,3.0534,3.0551,3.055,3.0541,3.0552,3.054,3.054,3.0542,3.0606,3.0612,3.0531,3.0531,3.0531,3.0531,3.0531,3.0531,3.0458,3.0442,3.0456,3.0444,3.0455,3.0448,3.045,3.0454,3.0461,3.0454,3.0452,3.0463,3.0475,3.0475,3.0473,3.0478,3.0476,3.046,3.0468,3.0528,3.0537,3.0546,3.0551,3.0459,3.0459,3.0405,3.0404,3.0404]}]]